Zurück zum Katalog

INTELSAT 16

AktivKommunikationGEO
NORAD 36397·PAYLOAD· XX

Gestartet Feb 12, 2010 von Baikonur Cosmodrome

Loading…

TLE

AktuellSource: CelesTrak SupGP

Epoche: Sep 14, 2026, 00:00 UTC

1 36397C 10006A   26257.00000000 -.00000199  00000+0  00000+0 0  2572
2 36397   0.0368 277.8051 0001390 278.2187  92.9091  1.01451498    19

Verfolge INTELSAT 16 in Echtzeit mit AllMySat

Download on the App Store